Printer-friendly version

IAU Minor Planet Center

Minor Planet Center

30P/Reinmuth

Orbital Elements

The following orbital elements are taken from MPC 59599:
30P/Reinmuth
Epoch 2010 May 4.0 TT = JDT 2455320.5
T 2010 Apr. 19.5450 TT                                  MPC
q   1.884078             (2000.0)            P               Q
n   0.1343221      Peri.   13.2067      -0.6795137      -0.7233368
a   3.776050       Node   119.7545      +0.6596309      -0.6755340
e   0.501045       Incl.    8.1222      +0.3211669      -0.1429603
P   7.34
From 1110 observations 1957-2003, mean residual 0".8.  Nongravitational
     parameters A1 = +0.19, A2 = -0.0149.
Elements are also available for the current standard epoch:
30P/Reinmuth
Epoch 2009 June 18.0 TT = JDT 2455000.5
T 2010 Apr. 19.5968 TT                                  MPC
q   1.884042             (2000.0)            P               Q
n   0.1344286      Peri.   13.2241      -0.6797159      -0.7231458
a   3.774054       Node   119.7532      +0.6594402      -0.6757203
e   0.500791       Incl.    8.1225      +0.3211308      -0.1430464
P   7.33
An explanation of the orbital elements is available.

These orbital elements are also available in forms suitable for loading into a number of popular planetarium-type software programs.


Ephemeris

The following ephemeris is at intervals of five days. A daily ephemeris covering the same time interval is also available.

Personalized ephemerides for this (and other) objects may be generated using the Minor Planet & Comet Ephemeris Service.

Recent magnitude estimates for this comet (as reported to the ICQ) may be available.

Date    TT    R. A. (2000) Decl.     Delta      r     Elong.  Phase   m1    m2
2009 06 08    02 51.43   +09 40.0    3.889    3.105    34.4    10.6  19.8  21.1
2009 06 13    02 58.42   +10 08.1    3.825    3.080    37.4    11.5  19.7  21.1
2009 06 18    03 05.44   +10 35.0    3.758    3.054    40.3    12.4  19.6  21.0
2009 06 23    03 12.49   +11 00.6    3.688    3.029    43.2    13.3  19.6  21.0
2009 06 28    03 19.54   +11 24.9    3.616    3.004    46.2    14.1  19.5  21.0
2009 07 03    03 26.60   +11 47.8    3.542    2.978    49.1    15.0  19.4  20.9
2009 07 08    03 33.66   +12 09.2    3.466    2.953    52.1    15.8  19.3  20.9
2009 07 13    03 40.71   +12 29.1    3.388    2.927    55.1    16.5  19.1  20.9
2009 07 18    03 47.73   +12 47.5    3.308    2.901    58.1    17.3  19.0  20.8
2009 07 23    03 54.72   +13 04.2    3.226    2.876    61.1    18.0  18.9  20.8
2009 07 28    04 01.65   +13 19.3    3.143    2.850    64.1    18.7  18.8  20.7
2009 08 02    04 08.52   +13 32.8    3.059    2.825    67.2    19.3  18.7  20.7
2009 08 07    04 15.31   +13 44.5    2.973    2.799    70.3    19.9  18.6  20.6
2009 08 12    04 22.00   +13 54.5    2.887    2.773    73.4    20.5  18.4  20.5
2009 08 17    04 28.57   +14 02.8    2.800    2.748    76.6    21.0  18.3  20.5
2009 08 22    04 35.00   +14 09.3    2.713    2.722    79.8    21.4  18.2  20.4
2009 08 27    04 41.26   +14 14.2    2.625    2.697    83.1    21.8  18.1  20.3
2009 09 01    04 47.33   +14 17.4    2.538    2.671    86.4    22.2  17.9  20.2
2009 09 06    04 53.18   +14 18.9    2.451    2.646    89.8    22.4  17.8  20.1
2009 09 11    04 58.78   +14 18.8    2.364    2.620    93.2    22.6  17.6  20.0
2009 09 16    05 04.10   +14 17.3    2.277    2.595    96.7    22.6  17.5  19.9
2009 09 21    05 09.10   +14 14.3    2.192    2.570   100.4    22.6  17.4  19.8
2009 09 26    05 13.73   +14 10.0    2.108    2.545   104.1    22.5  17.2  19.7
2009 10 01    05 17.96   +14 04.6    2.025    2.520   107.9    22.2  17.1  19.6
2009 10 06    05 21.75   +13 58.3    1.944    2.495   111.8    21.8  16.9  19.5
2009 10 11    05 25.04   +13 51.1    1.866    2.471   115.9    21.3  16.7  19.4
2009 10 16    05 27.80   +13 43.4    1.789    2.446   120.1    20.6  16.6  19.2
2009 10 21    05 29.96   +13 35.4    1.716    2.422   124.4    19.8  16.4  19.1
2009 10 26    05 31.49   +13 27.4    1.645    2.398   128.9    18.8  16.3  18.9
2009 10 31    05 32.35   +13 19.8    1.578    2.374   133.6    17.6  16.1  18.8
2009 11 05    05 32.51   +13 12.9    1.515    2.351   138.3    16.3  16.0  18.6
2009 11 10    05 31.95   +13 07.0    1.457    2.327   143.3    14.7  15.8  18.5
2009 11 15    05 30.65   +13 02.6    1.403    2.304   148.3    13.0  15.7  18.3
2009 11 20    05 28.64   +13 00.1    1.354    2.282   153.5    11.1  15.5  18.1
2009 11 25    05 25.95   +12 59.8    1.311    2.259   158.6     9.2  15.4  18.0
2009 11 30    05 22.68   +13 02.2    1.274    2.237   163.6     7.2  15.3  17.8
2009 12 05    05 18.92   +13 07.5    1.243    2.216   167.8     5.4  15.2  17.6
2009 12 10    05 14.79   +13 16.0    1.218    2.195   170.2     4.4  15.0  17.5
2009 12 15    05 10.47   +13 27.9    1.199    2.174   169.2     4.9  15.0  17.5
2009 12 20    05 06.12   +13 43.2    1.187    2.154   165.5     6.6  14.9  17.5
2009 12 25    05 01.96   +14 01.9    1.181    2.134   160.6     8.8  14.8  17.6
2009 12 30    04 58.16   +14 24.0    1.181    2.115   155.3    11.2  14.7  17.7
2010 01 04    04 54.88   +14 49.3    1.187    2.096   149.8    13.6  14.7  17.8
2010 01 09    04 52.28   +15 17.4    1.198    2.078   144.4    16.0  14.7  17.8
2010 01 14    04 50.46   +15 48.0    1.213    2.060   139.2    18.2  14.6  17.9
2010 01 19    04 49.52   +16 20.9    1.233    2.044   134.1    20.2  14.6  18.0
2010 01 24    04 49.52   +16 55.6    1.257    2.028   129.1    22.1  14.6  18.1
2010 01 29    04 50.48   +17 31.8    1.284    2.012   124.4    23.8  14.6  18.2
2010 02 03    04 52.41   +18 08.8    1.314    1.997   119.9    25.3  14.6  18.3
2010 02 08    04 55.29   +18 46.4    1.346    1.984   115.6    26.6  14.6  18.3
2010 02 13    04 59.09   +19 24.1    1.380    1.970   111.6    27.8  14.6  18.4
2010 02 18    05 03.79   +20 01.5    1.417    1.958   107.7    28.7  14.6  18.5
2010 02 23    05 09.34   +20 38.1    1.454    1.947   104.0    29.5  14.7  18.5
2010 02 28    05 15.70   +21 13.5    1.493    1.936   100.5    30.2  14.7  18.6
2010 03 05    05 22.81   +21 47.3    1.532    1.927    97.2    30.7  14.7  18.7
2010 03 10    05 30.61   +22 19.1    1.572    1.918    94.0    31.1  14.7  18.7
2010 03 15    05 39.07   +22 48.6    1.613    1.910    91.0    31.4  14.8  18.8
2010 03 20    05 48.14   +23 15.3    1.655    1.903    88.1    31.5  14.8  18.8
2010 03 25    05 57.76   +23 38.9    1.697    1.898    85.4    31.6  14.8  18.9
2010 03 30    06 07.88   +23 59.2    1.739    1.893    82.8    31.6  14.9  18.9
2010 04 04    06 18.45   +24 15.8    1.781    1.889    80.2    31.4  14.9  19.0
2010 04 09    06 29.41   +24 28.5    1.824    1.886    77.8    31.3  14.9  19.0
2010 04 14    06 40.73   +24 37.1    1.867    1.885    75.5    31.0  15.0  19.1
2010 04 19    06 52.36   +24 41.4    1.911    1.884    73.2    30.7  15.0  19.1
2010 04 24    07 04.24   +24 41.3    1.954    1.884    71.0    30.3  15.1  19.1
2010 04 29    07 16.33   +24 36.7    1.998    1.886    68.9    29.9  15.1  19.2
2010 05 04    07 28.58   +24 27.7    2.042    1.888    66.8    29.4  15.2  19.2
2010 05 09    07 40.95   +24 14.1    2.087    1.892    64.8    28.9  15.3  19.2
2010 05 14    07 53.41   +23 56.1    2.131    1.896    62.8    28.3  15.3  19.3
2010 05 19    08 05.92   +23 33.7    2.176    1.902    60.9    27.7  15.4  19.3
2010 05 24    08 18.44   +23 07.1    2.221    1.909    59.0    27.1  15.4  19.4
2010 05 29    08 30.94   +22 36.3    2.266    1.916    57.2    26.4  15.5  19.4
2010 06 03    08 43.39   +22 01.7    2.312    1.925    55.3    25.7  15.6  19.4
2010 06 08    08 55.78   +21 23.4    2.357    1.934    53.5    24.9  15.7  19.4
2010 06 13    09 08.07   +20 41.6    2.403    1.944    51.7    24.2  15.7  19.5
2010 06 18    09 20.26   +19 56.5    2.449    1.956    49.9    23.4  15.8  19.5
2010 06 23    09 32.33   +19 08.6    2.496    1.968    48.1    22.6  15.9  19.5
2010 06 28    09 44.27   +18 17.9    2.542    1.981    46.3    21.8  16.0  19.6
2010 07 03    09 56.06   +17 24.8    2.588    1.994    44.5    20.9  16.1  19.6
2010 07 08    10 07.71   +16 29.5    2.634    2.009    42.7    20.1  16.1  19.6
2010 07 13    10 19.21   +15 32.3    2.680    2.024    40.9    19.2  16.2  19.6

Back to Observable Comets


Valid HTML 4.01!